Terug naar catalogus

BLOCK DM-SL R/B

ActiefGTO
NORAD 39774·ROCKET BODY· XX

Gelanceerd May 26, 2014 vanaf Sea Launch Platform

Loading…

TLE

VerouderendSource: Space-Track

Epoch: Sep 14, 2026, 07:32 UTC

1 39774U 14030B   26257.31450480  .00000217  00000-0  73233-3 0  9996
2 39774   0.2106  19.4575 7203433 211.0609  40.2535  2.30242049103002

Volg BLOCK DM-SL R/B in realtime met AllMySat

Download on the App Store